Probability
0 0 0 0 0 0 0 0 0 0 0 0 0 0 0 0 0 0 0 0 0 3 3 3 3 3 0 0 0 0 0 0 3 3 3 6 3 3 3 3 3 6 6
0 0 0 0 0 0 0 0 0 0 0 0 0 0 0 0 0 0 0 0 0 0 0 3 3 3 0 0 0 0 0 0 0 0 0 3 6 6 3 3 3 3 3
0 0 0 0 0 0 0 0 0 0 0 0 0 0 0 0 0 0 0 0 0 0 0 0 3 3 0 0 0 0 0 0 0 0 0 0 3 3 3 3 0 3 3
0 0 0 0 0 0 0 0 0 0 0 0 0 0 0 0 0 0 0 0 0 0 0 0 0 0 3 0 0 0 3 0 0 0 0 0 0 0 0 0 0 0 0
0 0 0 0 0 0 0 0 0 0 0 0 0 0 0 0 0 0 0 0 0 0 0 0 0 0 0 0 0 0 0 0 0 0 0 0 0 0 0 0 0 0 0
0 0 0 0 0 0 0 0 0 0 0 0 0 0 0 0 0 0 0 0 0 0 0 0 0 0 0 0 0 0 0 0 0 0 0 0 0 0 0 0 0 0 0
0 0 0 0 0 0 0 0 0 0 0 0 0 0 0 0 0 0 0 0 0 0 0 0 0 0 0 0 0 0 0 0 0 0 0 0 0 0 0 0 0 0 0
0 0 0 0 0 0 0 0 0 0 0 0 0 0 0 0 0 0 0 0 0 0 0 0 0 0 0 0 0 0 0 0 0 0 0 0 0 0 0 0 0 0 0
0 0 0 0 0 0 0 0 0 0 0 0 0 0 0 0 0 0 0 0 0 0 0 0 0 0 0 0 0 0 0 0 0 0 0 0 0 0 0 0 0 0 0
0 0 0 0 0 0 0 0 0 0 0 0 0 0 0 0 0 0 0 0 0 0 0 0 0 0 0 0 0 0 0 0 0 0 0 0 0 0 0 0 0 0 0
0 0 0 0 0 0 0 0 0 0 0 0 0 0 0 0 0 0 0 0 0 0 0 0 0 0 0 0 0 0 0 0 0 0 0 0 0 0 0 0 0 0 0
0 0 0 0 0 0 0 0 0 0 0 0 0 0 0 0 0 0 0 0 0 0 0 0 0 0 0 0 0 0 0 0 0 0 0 0 0 0 0 0 0 0 3
0 0 0 0 0 0 0 0 0 0 0 0 0 0 0 0 0 0 0 0 0 0 0 0 0 0 0 0 0 0 0 0 0 0 0 0 0 0 0 0 0 0 0
0 0 0 0 0 0 0 0 0 0 0 0 0 0 0 0 0 0 0 0 0 0 0 0 0 0 0 0 0 0 0 0 0 0 0 0 0 0 0 0 0 0 0
0 0 0 0 0 0 0 0 0 0 0 0 0 0 0 0 0 0 0 0 0 0 0 0 0 0 0 0 0 0 0 0 0 0 0 0 0 0 0 0 0 0 0
0 0 0 0 0 0 0 0 0 0 0 0 0 0 0 0 0 0 0 0 0 0 0 0 0 0 0 0 0 0 0 0 0 0 0 0 0 0 0 0 0 0 0
0 0 0 0 0 0 0 0 0 0 0 0 0 0 0 0 0 0 0 0 0 0 0 0 0 0 0 0 0 0 0 0 0 0 0 0 0 0 0 0 0 0 0
0 0 0 0 0 0 0 0 0 0 0 0 0 0 0 0 0 0 0 0 0 0 0 0 0 0 0 0 0 0 0 0 0 0 0 0 0 0 0 0 0 0 0
0 0 0 0 0 0 0 0 0 0 0 0 0 0 0 0 0 0 0 0 0 0 0 0 0 0 0 0 0 0 0 0 0 0 0 0 0 0 0 0 0 0 0
0 0 0 0 0 0 0 0 0 0 0 0 0 0 0 0 0 0 0 0 0 0 0 0 0 0 0 0 0 0 0 0 0 0 0 0 0 0 0 0 0 0 0
0 0 0 0 0 0 0 0 0 0 0 0 0 0 0 0 0 0 0 0 0 0 0 0 0 0 0 0 0 0 0 0 0 0 0 0 0 0 0 0 0 0 0
0 0 0 0 0 0 0 0 0 0 0 0 0 0 0 0 0 0 0 0 0 0 0 0 0 0 0 0 0 0 0 0 0 0 0 0 0 0 0 0 0 0 0
0 0 0 0 0 0 0 0 0 0 0 0 0 0 0 0 0 0 0 0 0 0 0 0 0 0 0 0 0 0 0 0 0 0 0 0 0 0 0 0 0 0 0
0 0 0 0 0 0 0 0 0 0 0 0 0 0 0 0 0 0 0 0 0 0 0 0 0 0 0 0 0 0 0 0 0 0 0 0 0 0 0 0 0 0 0
0 0 0 0 0 0 0 0 0 0 0 0 0 0 0 0 0 0 0 0 0 0 0 0 0 0 0 0 0 0 0 0 0 0 0 0 0 0 0 0 0 0 0
0 0 0 0 0 0 0 0 0 0 0 0 0 0 0 0 0 0 0 0 0 0 0 0 0 0 0 0 0 0 0 0 0 0 0 0 0 0 0 0 0 0 0
Height
5753 5756 5759 5763 5766 5769 5772 5775 5779 5782 5784 5787 5790 5793 5795 5798 5800 5802 5805 5807 5809 5811 5813 5814 5816 5817 5818 5819 5820 5820 5821 5822 5822 5823 5823 5824 5824 5825 5825 5825 5825 5825 5824
5742 5745 5749 5753 5756 5760 5763 5766 5770 5773 5776 5780 5783 5785 5788 5790 5793 5795 5798 5800 5803 5805 5807 5808 5810 5811 5813 5813 5814 5815 5816 5816 5817 5818 5818 5819 5819 5820 5820 5820 5820 5820 5820
5731 5735 5738 5742 5746 5750 5753 5757 5760 5764 5768 5771 5774 5777 5780 5783 5786 5788 5791 5793 5796 5798 5800 5802 5804 5805 5806 5807 5808 5809 5810 5811 5811 5812 5813 5813 5814 5814 5815 5815 5815 5815 5815
5719 5723 5727 5732 5735 5739 5743 5747 5750 5754 5758 5762 5765 5769 5772 5775 5778 5780 5783 5786 5788 5791 5793 5795 5797 5798 5800 5801 5802 5803 5804 5804 5805 5806 5807 5807 5808 5809 5809 5810 5810 5810 5810
5707 5711 5716 5720 5724 5728 5732 5736 5740 5744 5748 5752 5756 5760 5763 5767 5769 5772 5775 5778 5781 5783 5786 5788 5789 5791 5793 5794 5795 5796 5797 5798 5799 5800 5801 5801 5802 5803 5803 5804 5804 5804 5804
5694 5699 5703 5708 5712 5716 5721 5725 5730 5733 5738 5742 5746 5750 5754 5757 5760 5763 5766 5769 5772 5775 5777 5779 5781 5783 5785 5787 5788 5789 5790 5791 5792 5793 5794 5795 5796 5797 5797 5797 5798 5798 5798
5681 5686 5690 5695 5700 5705 5709 5714 5719 5723 5727 5731 5736 5740 5743 5747 5750 5754 5756 5760 5763 5766 5768 5771 5773 5775 5777 5779 5780 5782 5783 5784 5785 5786 5787 5788 5789 5790 5790 5791 5791 5792 5792
5668 5673 5677 5682 5687 5692 5697 5703 5708 5712 5716 5720 5725 5729 5733 5737 5740 5744 5747 5750 5753 5756 5759 5761 5764 5766 5768 5770 5772 5773 5775 5776 5777 5779 5780 5781 5782 5783 5783 5784 5784 5785 5785
5655 5660 5664 5670 5675 5680 5685 5691 5696 5701 5705 5709 5714 5719 5723 5727 5731 5734 5737 5740 5743 5746 5749 5751 5754 5756 5759 5761 5763 5765 5766 5768 5769 5771 5772 5773 5774 5775 5776 5777 5777 5777 5778
5642 5647 5651 5656 5662 5667 5673 5679 5684 5689 5694 5698 5703 5707 5712 5716 5720 5724 5727 5730 5733 5736 5739 5742 5744 5747 5749 5751 5753 5755 5757 5759 5761 5762 5763 5765 5766 5767 5768 5769 5769 5770 5770
5629 5634 5638 5643 5649 5655 5661 5666 5672 5677 5682 5687 5691 5696 5700 5704 5708 5713 5717 5720 5723 5726 5729 5732 5735 5737 5739 5742 5744 5746 5748 5750 5752 5753 5754 5755 5757 5758 5759 5760 5761 5761 5761
5616 5620 5625 5630 5636 5642 5648 5654 5659 5664 5669 5675 5679 5684 5688 5693 5697 5701 5705 5709 5712 5716 5718 5721 5724 5727 5729 5732 5734 5736 5738 5740 5742 5744 5745 5746 5748 5749 5750 5751 5752 5752 5752
5602 5607 5612 5617 5623 5629 5635 5641 5646 5651 5657 5662 5667 5672 5676 5681 5685 5689 5693 5697 5701 5704 5707 5710 5713 5716 5719 5721 5724 5726 5728 5730 5732 5734 5735 5737 5738 5739 5740 5741 5742 5743 5743
5590 5594 5599 5604 5610 5616 5622 5628 5633 5639 5644 5649 5654 5659 5664 5668 5673 5677 5681 5685 5689 5693 5696 5699 5702 5705 5708 5711 5713 5715 5717 5719 5721 5723 5725 5726 5728 5729 5730 5731 5732 5732 5733
5577 5581 5586 5591 5597 5602 5609 5615 5620 5625 5631 5636 5642 5646 5651 5655 5660 5665 5669 5673 5677 5681 5685 5688 5691 5694 5697 5700 5702 5704 5706 5709 5711 5712 5714 5716 5717 5718 5719 5720 5721 5722 5722
5565 5569 5574 5579 5584 5590 5596 5601 5607 5612 5617 5623 5628 5633 5638 5643 5647 5652 5656 5660 5664 5668 5672 5677 5680 5683 5685 5688 5691 5693 5695 5697 5699 5701 5703 5704 5706 5707 5708 5709 5709 5710 5711
5553 5557 5561 5567 5572 5577 5583 5589 5594 5599 5604 5609 5615 5620 5625 5630 5634 5638 5643 5647 5651 5655 5660 5664 5667 5670 5673 5676 5679 5681 5683 5685 5687 5689 5691 5692 5694 5695 5696 5697 5698 5699 5699
5542 5545 5549 5554 5560 5565 5570 5576 5581 5586 5591 5596 5602 5607 5612 5616 5621 5625 5630 5634 5638 5642 5646 5650 5654 5657 5660 5664 5667 5669 5671 5673 5675 5677 5678 5680 5681 5682 5684 5685 5685 5686 5687
5530 5534 5538 5543 5547 5552 5557 5563 5568 5573 5578 5583 5588 5593 5598 5602 5607 5612 5616 5620 5625 5629 5633 5637 5640 5644 5647 5650 5653 5656 5658 5660 5662 5664 5665 5667 5668 5669 5670 5671 5672 5673 5674
5519 5523 5527 5531 5535 5540 5545 5549 5554 5559 5564 5569 5574 5579 5584 5588 5593 5598 5602 5606 5610 5614 5618 5622 5626 5630 5633 5636 5639 5642 5645 5647 5649 5651 5652 5653 5655 5656 5657 5658 5659 5660 5660
5509 5512 5516 5520 5524 5528 5532 5536 5541 5546 5551 5555 5560 5565 5569 5574 5579 5583 5588 5592 5596 5600 5603 5607 5612 5615 5619 5622 5625 5628 5631 5633 5635 5637 5639 5640 5641 5643 5643 5644 5645 5645 5645
5499 5502 5506 5509 5513 5517 5521 5524 5528 5532 5537 5541 5546 5550 5554 5559 5564 5568 5573 5577 5581 5585 5588 5592 5596 5600 5604 5607 5610 5613 5616 5618 5621 5624 5624 5626 5627 5628 5629 5630 5630 5630 5631
5490 5493 5496 5499 5502 5506 5509 5512 5515 5519 5524 5528 5532 5536 5540 5544 5548 5553 5557 5561 5565 5569 5573 5576 5581 5585 5589 5592 5595 5598 5600 5603 5606 5608 5610 5612 5612 5613 5614 5615 5615 5615 5615
5481 5484 5486 5489 5492 5494 5497 5500 5503 5506 5510 5514 5517 5521 5525 5529 5532 5537 5541 5546 5550 5554 5557 5561 5566 5569 5572 5575 5578 5582 5585 5587 5590 5592 5593 5596 5597 5598 5599 5599 5599 5599 5600
5473 5474 5476 5479 5481 5483 5485 5487 5490 5493 5496 5499 5503 5506 5509 5513 5517 5521 5526 5530 5534 5538 5540 5545 5549 5552 5555 5558 5562 5565 5568 5571 5574 5576 5577 5579 5581 5582 5583 5584 5584 5584 5584
5464 5465 5467 5469 5470 5472 5473 5475 5477 5480 5483 5486 5488 5492 5495 5498 5502 5505 5509 5514 5518 5522 5525 5529 5532 5536 5539 5542 5545 5549 5552 5554 5557 5560 5562 5563 5565 5565 5568 5569 5568 5568 5568
Wind_Speed
41 41 41 40 39 39 39 39 37 37 36 34 33 33 32 31 31 30 29 28 27 26 25 25 24 23 22 22 21 21 20 20 20 20 20 19 19 19 18 18 18 18 18
43 42 42 41 41 41 40 40 39 38 37 36 35 35 34 33 32 32 31 30 29 28 27 26 26 25 24 23 23 23 22 22 22 22 21 21 20 20 20 20 20 19 19
45 44 43 42 42 42 41 41 41 40 39 39 38 37 36 35 34 33 33 32 31 30 29 28 27 27 26 26 25 24 24 24 23 23 23 22 22 21 21 21 21 21 21
48 47 46 44 44 43 43 43 43 42 41 41 40 39 38 37 36 36 35 34 33 32 31 30 30 29 28 27 27 26 25 25 24 24 24 23 23 23 23 23 23 22 22
50 49 48 47 46 45 45 44 44 44 43 43 42 41 40 40 38 38 37 36 36 35 34 33 32 31 30 29 29 28 27 26 26 25 25 25 24 24 24 24 24 24 23
50 51 50 49 48 47 46 46 45 44 44 43 43 42 42 42 40 41 40 39 38 37 36 35 35 34 33 32 31 30 29 28 28 27 27 26 26 26 25 25 25 26 25
49 50 51 50 49 49 49 47 47 45 45 45 44 44 43 43 42 41 41 40 40 39 38 37 36 35 35 34 33 32 31 30 30 29 29 28 28 27 28 27 27 27 27
50 51 51 50 50 50 50 49 48 47 46 46 46 46 44 43 42 42 42 41 40 40 40 39 38 37 37 36 35 34 33 32 32 31 31 31 30 30 30 29 29 29 29
50 51 52 51 51 51 50 49 49 48 48 48 47 47 46 45 44 44 43 42 41 41 40 40 39 39 38 38 37 36 35 34 33 33 33 33 33 32 32 31 31 31 31
49 50 51 52 52 51 50 50 50 49 49 49 48 47 47 46 45 44 44 43 42 41 40 40 40 39 39 38 38 38 37 36 35 35 35 35 35 35 34 34 33 33 33
50 50 51 52 51 51 51 50 51 50 50 49 48 48 48 46 46 45 44 43 43 42 41 41 41 40 39 39 38 38 38 37 37 36 36 36 36 36 37 37 36 35 35
50 50 51 52 52 51 51 50 51 52 52 51 50 49 49 48 47 47 46 45 45 44 43 43 42 42 41 40 39 39 39 39 38 38 37 37 38 38 38 38 38 37 37
50 50 50 52 52 51 50 50 51 51 51 52 51 50 50 50 49 48 48 46 46 46 45 44 44 43 42 41 40 40 40 40 40 40 39 38 38 39 39 39 39 39 39
49 49 50 51 52 52 51 51 52 51 52 52 51 51 52 52 51 49 49 48 47 47 46 45 45 45 44 43 42 41 41 42 42 41 41 41 40 40 41 41 41 41 41
48 48 49 51 51 52 51 52 52 52 53 53 53 52 53 53 51 51 50 49 49 48 47 46 46 46 45 44 44 43 43 43 43 43 43 43 43 42 42 42 42 42 42
47 47 48 50 50 51 51 52 52 53 53 53 53 53 52 53 52 52 50 50 51 50 49 47 46 46 47 47 46 46 45 45 45 45 44 44 44 44 43 43 42 42 43
46 47 48 49 49 50 51 52 53 54 53 54 54 54 53 52 52 51 51 51 52 52 50 49 48 48 48 48 48 48 48 47 47 47 46 45 46 46 45 44 44 43 44
45 46 47 48 49 49 51 52 53 54 54 53 54 53 52 52 52 52 52 53 53 53 52 51 51 50 50 50 50 50 50 50 49 49 49 48 48 47 47 46 46 46 46
43 44 46 47 48 48 49 50 52 53 53 54 54 53 52 52 52 53 54 54 55 55 55 54 53 53 52 52 52 52 52 52 51 51 50 50 50 49 48 48 48 48 48
42 44 45 47 49 49 48 49 51 52 53 54 54 55 54 53 52 54 54 54 55 56 56 55 55 54 54 54 53 52 52 53 53 52 52 52 52 51 51 50 49 49 50
41 42 44 46 47 47 47 48 50 51 53 54 55 56 55 55 55 55 55 55 56 57 57 57 57 56 56 55 54 53 53 54 54 54 54 54 54 53 53 51 51 51 51
39 41 42 44 45 46 48 49 49 50 51 53 55 55 55 55 55 55 56 56 56 57 58 58 58 57 57 56 56 56 55 55 56 55 54 54 55 54 53 53 53 53 53
37 38 40 42 44 46 47 48 49 50 51 53 55 56 56 55 55 56 57 57 57 57 58 58 58 57 57 57 57 57 57 56 55 55 55 54 54 54 54 54 54 55 54
35 36 38 40 43 44 44 46 48 50 50 52 53 54 55 56 56 55 56 56 57 57 57 58 58 58 59 59 59 58 57 56 56 55 55 54 54 54 55 55 55 55 55
35 36 37 39 41 43 43 44 47 48 49 50 51 51 53 54 54 55 55 55 56 57 57 57 58 58 58 58 57 56 56 57 56 56 56 56 55 55 56 56 55 56 56
34 35 36 38 40 42 43 43 44 45 46 48 50 51 51 53 54 54 55 55 56 56 57 57 57 57 57 57 57 57 57 57 56 56 56 56 56 57 56 56 55 55 55
Wind_Direction
247 247 246 246 247 247 246 246 245 246 246 246 246 247 247 246 245 246 245 246 247 248 249 250 252 255 258 262 265 267 269 270 272 272 271 271 271 272 274 276 279 283 286
249 248 247 247 247 247 246 246 245 245 246 245 246 246 247 247 246 246 246 246 247 248 250 251 252 254 257 261 264 266 267 268 270 271 271 271 271 272 274 276 279 281 284
249 247 247 247 247 246 246 245 245 244 245 246 246 246 247 247 248 246 246 247 247 248 249 251 253 255 258 260 263 265 266 267 268 268 269 269 270 272 274 276 278 280 283
249 247 247 246 247 246 246 245 244 244 244 245 245 246 246 245 247 247 246 247 247 248 249 251 254 256 258 260 262 263 265 266 266 267 268 269 270 271 272 274 275 277 280
250 248 246 246 246 246 246 244 244 243 244 244 245 246 246 246 248 247 247 246 248 248 249 252 255 256 257 259 261 262 263 264 265 266 267 268 269 270 272 273 274 275 277
250 248 246 246 245 245 245 244 243 243 243 244 245 246 246 245 247 247 247 247 248 248 249 251 254 255 256 257 260 262 263 264 265 265 266 266 268 269 269 271 273 274 277
250 248 247 245 244 244 244 244 244 243 243 244 244 246 246 247 247 248 248 248 248 248 249 251 252 254 255 256 259 261 263 263 264 264 265 265 266 267 269 271 272 274 275
249 247 246 245 244 243 242 242 243 243 243 244 244 245 247 247 247 246 247 247 248 249 249 251 252 252 254 255 258 260 261 262 263 264 264 265 265 266 268 270 271 273 274
248 246 246 245 244 242 241 241 242 242 242 243 244 246 246 246 247 246 246 248 248 249 250 251 252 253 253 255 257 258 260 260 262 263 264 264 265 265 267 268 270 272 274
248 247 246 245 243 241 240 241 241 241 242 243 245 246 245 246 248 246 247 248 248 248 249 251 252 253 254 254 256 257 258 259 260 262 263 264 264 265 265 267 269 271 273
248 247 246 245 242 241 240 240 241 241 241 242 243 245 245 245 247 246 247 248 249 249 250 251 252 252 253 254 256 256 256 257 259 261 263 263 264 264 265 267 268 269 271
247 247 246 245 243 241 240 241 242 241 241 242 243 245 246 246 246 246 246 247 248 248 249 250 251 252 253 254 256 256 256 257 258 260 262 264 264 264 266 267 267 268 270
247 246 245 244 242 240 241 242 242 241 241 242 244 245 246 246 246 247 247 247 248 247 248 249 250 252 253 254 255 256 256 256 257 259 261 263 264 265 266 267 267 267 268
248 246 245 244 242 240 240 241 242 242 242 242 244 245 246 246 246 247 247 247 248 248 248 249 250 251 252 254 255 256 257 257 257 259 260 262 264 265 265 266 267 267 268
248 247 245 243 241 240 239 241 242 242 243 243 243 245 246 246 247 247 247 248 249 249 248 249 250 251 252 254 255 256 257 258 259 259 261 261 263 264 265 267 268 268 268
249 247 245 242 240 240 240 242 243 242 242 243 243 244 246 246 247 247 247 247 248 248 248 249 251 252 253 254 255 256 258 259 259 260 261 262 262 264 264 266 268 268 268
249 248 245 243 241 241 241 242 244 244 243 243 242 243 244 246 246 246 246 248 249 249 249 249 251 252 253 254 255 257 257 259 259 259 261 262 263 263 264 266 267 269 271
248 247 245 243 241 241 242 243 244 244 244 244 244 244 245 246 246 246 247 248 249 249 249 249 251 252 253 254 255 257 258 260 259 259 261 262 263 263 264 265 267 269 271
248 247 245 243 241 242 244 243 243 244 245 245 244 244 245 247 247 247 248 249 249 250 250 251 251 252 253 254 255 256 258 260 260 260 261 263 264 264 264 266 267 268 270
249 247 246 244 243 244 245 245 244 245 246 246 246 246 246 248 248 248 249 249 249 250 251 251 252 253 253 254 255 257 258 259 260 261 262 263 264 265 265 267 267 268 269
249 248 246 245 246 246 247 247 246 246 246 246 247 247 247 248 248 248 250 250 250 251 251 252 253 253 254 255 256 257 258 259 260 262 263 264 265 266 266 266 267 268 270
251 249 247 248 248 248 250 249 248 247 247 248 249 248 249 249 249 250 250 250 250 251 252 253 253 254 254 255 256 258 259 260 261 262 264 265 265 266 266 267 267 269 270
252 252 253 252 251 250 251 251 250 249 249 250 250 250 250 251 251 251 251 251 251 251 252 253 253 253 254 254 256 258 259 260 262 263 264 264 265 265 265 267 268 268 269
254 255 254 253 252 252 252 251 251 251 252 252 252 252 251 252 252 251 250 251 252 252 252 253 252 253 254 255 256 257 258 260 261 262 263 263 264 265 266 267 268 269 269
255 256 255 255 255 253 253 253 254 253 253 252 253 253 253 252 252 251 251 251 252 252 253 254 254 254 254 254 254 256 257 258 260 261 262 264 264 265 266 267 268 269 269
256 256 256 256 256 255 255 256 256 256 255 254 252 253 253 253 252 251 251 251 252 252 253 254 254 254 255 255 255 256 257 258 259 260 262 264 265 266 266 267 268 269 270